TimeEST,TemperatureF,Dew PointF,Humidity,Sea Level PressureIn,VisibilityMPH,Wind Direction,Wind SpeedMPH,Gust SpeedMPH,PrecipitationIn,Events,Conditions,WindDirDegrees,DateUTC
12:52 AM,32.0,25.0,75,29.65,10.0,ENE,11.5,-,0.00,,Overcast,60,2013-02-28 05:52:00
1:52 AM,30.9,25.0,79,29.61,10.0,East,12.7,-,0.00,,Overcast,80,2013-02-28 06:52:00
3:08 AM,32.0,24.8,75,29.55,10.0,East,10.4,-,N/A,,Mostly Cloudy,90,2013-02-28 08:08:00
3:52 AM,32.0,25.0,75,29.58,10.0,East,8.1,-,N/A,,Overcast,80,2013-02-28 08:52:00
4:52 AM,32.0,25.0,75,29.58,10.0,East,8.1,-,N/A,,Overcast,100,2013-02-28 09:52:00
5:52 AM,33.1,26.1,75,29.59,10.0,ESE,4.6,-,N/A,,Overcast,120,2013-02-28 10:52:00
6:52 AM,32.0,26.1,79,29.61,10.0,Calm,Calm,-,N/A,,Overcast,0,2013-02-28 11:52:00
7:52 AM,34.0,27.0,75,29.62,10.0,Calm,Calm,-,N/A,,Overcast,0,2013-02-28 12:52:00
8:21 AM,33.8,26.6,75,29.58,10.0,Calm,Calm,-,N/A,,Mostly Cloudy,0,2013-02-28 13:21:00
8:47 AM,35.6,26.6,70,29.58,10.0,Calm,Calm,-,N/A,,Overcast,0,2013-02-28 13:47:00
8:52 AM,36.0,27.0,70,29.61,10.0,Calm,Calm,-,N/A,,Overcast,0,2013-02-28 13:52:00
9:52 AM,37.0,28.0,70,29.60,10.0,Calm,Calm,-,N/A,,Clear,0,2013-02-28 14:52:00
10:52 AM,42.1,28.0,58,29.59,10.0,Calm,Calm,-,N/A,,Clear,0,2013-02-28 15:52:00
11:52 AM,41.0,28.0,60,29.58,10.0,Calm,Calm,-,N/A,,Mostly Cloudy,0,2013-02-28 16:52:00
12:52 PM,42.1,28.0,58,29.57,10.0,Calm,Calm,-,N/A,,Overcast,0,2013-02-28 17:52:00
1:52 PM,44.1,27.0,51,29.56,10.0,North,3.5,-,N/A,,Overcast,360,2013-02-28 18:52:00
2:52 PM,43.0,27.0,53,29.55,10.0,NW,3.5,-,N/A,,Overcast,320,2013-02-28 19:52:00
4:52 PM,42.1,28.0,58,29.54,10.0,North,4.6,-,N/A,,Overcast,360,2013-02-28 21:52:00
5:52 PM,37.9,30.9,76,29.56,10.0,Calm,Calm,-,0.00,Rain,Light Rain,0,2013-02-28 22:52:00
6:17 PM,37.4,32.0,81,29.54,10.0,Calm,Calm,-,0.01,Rain,Light Rain,0,2013-02-28 23:17:00
6:52 PM,35.1,33.1,92,29.57,10.0,Calm,Calm,-,0.01,Rain,Light Rain,0,2013-02-28 23:52:00
7:47 PM,35.6,32.0,87,29.54,10.0,NE,4.6,-,0.02,Rain,Light Rain,40,2013-03-01 00:47:00
7:52 PM,35.1,32.0,89,29.57,10.0,NE,4.6,-,0.02,Rain,Light Rain,40,2013-03-01 00:52:00
8:52 PM,34.0,32.0,92,29.57,8.0,Calm,Calm,-,0.01,Snow,Light Snow,0,2013-03-01 01:52:00
9:52 PM,34.0,32.0,92,29.57,7.0,Calm,Calm,-,0.01,Snow,Light Snow,0,2013-03-01 02:52:00
10:06 PM,33.8,30.2,87,29.54,5.0,Calm,Calm,-,0.00,Snow,Light Snow,0,2013-03-01 03:06:00
10:52 PM,33.1,32.0,96,29.57,5.0,Calm,Calm,-,0.01,Snow,Light Snow,0,2013-03-01 03:52:00
11:01 PM,33.8,32.0,93,29.54,4.0,Calm,Calm,-,0.00,Snow,Light Snow,0,2013-03-01 04:01:00
11:29 PM,33.8,30.2,87,29.53,3.0,Calm,Calm,-,0.01,Snow,Light Snow,0,2013-03-01 04:29:00
11:52 PM,33.1,32.0,96,29.56,7.0,Calm,Calm,-,0.01,Snow,Light Snow,0,2013-03-01 04:52:00